Weather Roundup
Issued by NWS Chicago, IL

Home | Current Version | Previous Version | Text Only | Print | Product List | Glossary Off
Versions: 1 2 3 4 5 6 7 8 9 10 11 12 13 14 15 16 17 18 19 20 21 22 23 24 25 26 27 28 29 30 31 32 33 34 35 36 37 38 39 40 41 42 43 44 45 46 47 48 49 50

000
NZUS59 KLOT 291112
HRRLOT

CHICAGO AREA WEATHER ROUNDUP
NATIONAL WEATHER SERVICE CHICAGO/ROMEOVILLE IL
600 AM CDT FRI MAY 29 2015

NOTE: "FAIR" INDICATES FEW OR NO CLOUDS BELOW 12,000 FEET WITH NO
SIGNIFICANT WEATHER AND/OR OBSTRUCTIONS TO VISIBILITY.

* THESE STATIONS ARE NOT UNDER NWS QUALITY CONTROL. THEY ALSO MAY NOT
  REPORT WEATHER SUCH AS PRECIPITATION OR FOG.

ILZ005-006-012>014-019>023-291200-
NORTHEAST ILLINOIS

CITY           SKY/WX    TMP DP  RH WIND       PRES   REMARKS
OHARE          CLOUDY    65  60  84 S5        30.01S
MIDWAY         CLOUDY    72  64  76 S6        30.02S
AURORA         CLOUDY    67  60  78 S6        30.02S
LANSING*       CLOUDY    66  62  86 SE5       30.04R FOG
JOLIET*        CLOUDY    69  65  86 CALM      30.02S
WAUKEGAN       CLOUDY    60  57  89 S3        30.02R
DUPAGE AIRPORT CLOUDY    65  61  87 S5        30.02R
WHEELING       CLOUDY    65  60  84 S5        30.03S
KANKAKEE*      CLOUDY    67  64  90 SE3       30.05R
MORRIS*        CLOUDY    66  62  86 SE5       30.01S
LEWIS AIRPORT* CLOUDY    67  62  85 S7        30.03R
NORTHERLY IS     N/A     62  58  86 S1          N/A
$$

WIZ051-052-058>065-066-070>072-291200-
SOUTHEAST WISCONSIN

CITY           SKY/WX    TMP DP  RH WIND       PRES   REMARKS
MILWAUKEE      MOCLDY    63  55  75 S8        30.01S
KENOSHA*       MOCLDY    64  57  78 S7        30.02S
RACINE*        MOCLDY    61  55  81 S6        30.03S
BURLINGTON     PTCLDY    56  55  95 CALM      30.02R
WAUKESHA       PTCLDY    63  55  77 S5        30.02S
WEST BEND      MOCLDY    61  54  77 CALM      30.02R
$$

INZ001>003-010>013-019-020-291200-
NORTHWEST INDIANA

CITY           SKY/WX    TMP DP  RH WIND       PRES   REMARKS
GARY*          CLOUDY    68  64  88 S6        30.05S
MICHIGAN CITY* NOT AVBL
RENSSELAER*    NOT AVBL
VALPARAISO     MOCLDY    66  62  87 SE7       30.07S
$$

LMZ740>746-291200-
SOUTHERN LAKE MICHIGAN

STATION/POSITION TIME  SKY/WX   TEMP WIND        PRES    VSBY
                                AIR  DIR/SP/G
                 (UTC)          (F)  (DEG/KT/KT) (MB)    (MI)
HARRISON CRIB    1000            62  150/  9/ 10   N/A
BURNHAM HARBOR   1100            62  140/  2/  5   N/A
CALUMET HARBOR   1012            71  170/  6/  9   N/A
BURNS HARBOR     1000            71  160/  8/ 16 1017.6F
MICHIGAN CITY    1000            69  130/ 10/ 12   N/A
$$

ABBREVIATIONS USED IN REMARKS
   TC - TEMPERATURE IN CELSIUS
  WCI - WIND CHILL INDEX
   HX - HEAT INDEX
  VSB - VISIBILITY
$$



USA.gov is the U.S. government's official web portal to all federal, state and local government web resources and services.